Wind_Speed
14 13 12 12 12 12 12 11 10 9 9 10 10 9 10 10 10 10 9 9 9 9 9 9 8 8 8 8 8 8 7 7 7 7 7 7 7 7 7 8 7 8 8
15 14 14 13 13 12 12 12 11 10 10 10 10 10 10 10 10 10 10 9 9 9 9 9 9 9 8 8 8 7 7 7 7 7 7 7 7 7 7 7 7 8 8
16 16 15 14 14 13 12 12 12 11 11 11 11 11 11 11 11 11 11 10 10 10 10 9 9 9 8 8 8 8 8 8 8 8 8 8 8 8 8 8 8 8 9
17 17 16 16 15 14 14 13 13 12 12 12 12 12 12 12 12 11 11 11 11 10 10 10 9 9 9 9 9 8 8 8 8 8 9 9 9 8 8 9 9 9 10
18 18 18 17 16 16 15 14 14 14 13 12 12 13 13 13 13 13 13 12 12 11 10 10 10 10 10 10 10 10 9 9 9 9 9 9 9 9 9 9 9 10 10
20 19 19 19 18 18 16 15 15 14 13 13 12 13 14 13 13 13 13 13 12 12 11 11 11 11 11 11 11 12 11 10 10 10 10 10 10 10 10 10 10 11 12
21 21 20 20 20 19 18 17 16 15 14 13 13 13 14 15 14 14 14 13 13 13 13 12 12 12 12 12 12 12 12 11 11 11 11 11 12 12 12 12 13 13 13
21 21 21 20 20 20 19 18 17 16 15 14 14 14 15 15 15 15 15 14 14 14 14 14 14 14 13 13 13 13 13 13 13 13 13 13 14 14 14 14 14 14 15
22 21 21 22 21 21 21 20 19 17 16 15 15 15 15 15 15 14 15 15 15 15 15 15 15 15 15 15 15 14 13 13 14 13 14 14 15 15 15 16 16 16 16
23 22 21 22 22 22 22 21 20 19 18 17 16 16 16 16 15 15 15 15 15 16 16 16 16 16 16 16 16 15 15 15 15 15 15 16 16 17 17 18 18 19 19
23 23 22 22 24 23 23 22 21 20 19 18 18 18 17 17 17 17 16 16 16 16 17 17 16 16 16 17 17 17 17 17 17 17 18 18 18 18 18 19 19 20 20
24 23 23 22 23 24 24 23 22 22 21 20 20 19 19 19 18 18 17 17 17 18 18 18 18 18 18 18 18 18 18 19 19 20 20 20 20 20 20 20 20 21 21
23 23 24 24 24 25 25 24 24 23 22 22 21 21 20 20 19 19 19 18 18 19 19 19 19 19 19 19 19 19 19 20 20 21 21 21 22 22 22 21 21 22 22
23 24 24 24 24 25 25 25 24 24 24 23 23 22 21 20 21 20 19 19 19 20 20 20 20 20 19 20 20 19 20 20 21 22 22 22 23 23 22 22 23 23 23
23 24 25 26 25 25 25 26 25 26 26 24 24 23 22 22 21 21 20 20 20 20 21 21 21 21 20 20 20 20 20 21 21 22 23 24 24 23 24 24 25 24 24
24 24 25 27 26 26 26 27 27 27 26 26 25 25 24 23 23 23 22 22 22 21 21 21 21 21 21 21 21 21 21 21 22 22 23 23 23 24 24 25 25 26 26
25 25 25 26 27 27 27 27 28 28 28 27 27 26 26 25 24 25 25 24 24 23 22 22 22 22 22 21 21 22 22 22 23 23 23 23 23 24 25 26 27 27 28
24 25 26 26 27 28 28 28 28 29 29 29 28 28 28 27 26 26 26 25 24 24 24 23 23 23 23 23 23 23 24 24 24 25 25 25 25 26 26 26 27 27 27
25 25 27 27 28 29 29 30 30 30 30 30 30 29 28 28 27 27 26 25 24 25 25 25 25 25 25 25 25 25 26 26 26 26 27 27 27 27 28 28 27 27 27
27 27 28 28 29 30 30 31 31 31 31 31 30 30 29 29 28 28 27 26 25 25 26 26 26 26 27 27 27 28 28 28 28 28 27 27 28 28 28 28 27 28 28
29 29 29 29 30 31 31 31 31 32 32 31 31 31 30 30 29 29 28 27 27 27 27 28 28 28 27 27 28 28 28 28 28 28 28 28 28 29 29 29 29 29 29
30 30 30 30 30 30 31 32 32 33 34 33 32 32 32 31 30 30 30 29 29 30 29 29 29 28 28 28 28 28 28 28 28 28 28 29 29 29 30 30 30 30 30
31 31 31 30 30 30 30 32 33 34 34 34 34 34 33 32 31 31 31 31 31 31 31 30 30 29 29 29 29 29 29 29 29 29 29 29 29 29 30 30 30 31 31
31 31 31 31 31 31 31 32 33 35 36 36 35 34 34 33 33 33 33 33 32 32 31 31 31 30 30 30 30 30 30 30 30 30 30 30 30 30 30 30 30 31 32
30 30 30 31 31 31 32 33 33 34 35 36 36 36 35 34 34 33 33 33 33 33 32 32 32 31 31 32 32 31 31 31 31 31 31 31 31 31 31 31 31 31 32
30 30 31 31 31 32 32 33 33 34 34 35 36 36 36 36 35 34 34 34 33 33 33 33 32 32 32 32 33 32 32 32 31 31 31 31 31 31 32 32 33 33 33
Wind_Direction
264 264 264 263 262 264 262 259 257 256 252 247 247 246 242 240 240 241 243 244 244 244 243 243 244 245 245 245 244 247 246 249 254 260 267 272 276 283 290 296 298 303 308
263 262 260 260 260 261 258 257 256 253 250 247 246 244 242 240 238 240 242 244 243 245 244 243 242 241 244 240 240 243 244 249 255 261 267 272 277 284 289 293 295 300 304
260 259 257 258 258 257 256 255 254 255 250 246 246 245 243 240 240 242 243 245 245 247 244 240 239 238 238 238 239 243 244 250 258 264 269 273 277 280 285 289 293 298 301
257 256 255 256 254 254 254 254 254 254 251 248 248 246 244 241 241 242 243 244 247 247 243 241 239 238 239 240 241 243 248 252 257 265 269 273 276 279 283 286 291 297 300
254 253 253 252 251 250 252 252 252 251 250 248 247 245 244 243 241 242 245 245 245 243 241 241 239 240 242 243 245 247 248 251 257 263 268 273 275 279 282 284 289 295 299
251 249 250 250 248 247 249 250 250 248 248 246 245 244 243 243 241 243 245 243 240 240 242 244 243 241 243 245 249 252 252 255 259 266 270 271 275 278 281 284 288 292 298
249 248 247 246 245 244 244 245 246 247 247 244 245 245 245 245 245 246 244 241 239 239 242 246 246 245 247 247 249 252 255 259 263 268 271 272 275 278 280 283 287 291 293
250 248 245 243 242 241 241 243 244 246 246 245 245 246 246 247 248 247 243 241 241 242 245 249 249 246 248 250 250 254 256 259 264 268 271 274 276 277 279 283 287 289 291
250 249 245 242 241 239 240 242 244 246 245 245 245 246 246 247 249 246 243 243 244 244 245 250 250 249 250 251 253 255 259 263 266 271 274 275 276 278 279 282 286 289 289
249 248 245 241 240 240 240 241 244 245 244 244 245 247 246 246 246 245 243 247 246 244 245 250 251 252 253 254 255 256 257 261 265 270 274 276 277 278 280 282 284 286 287
247 245 244 241 239 240 240 240 243 243 243 243 245 247 247 247 246 248 247 248 248 247 249 251 252 253 254 255 258 258 260 263 266 270 275 277 278 278 280 283 286 288 288
245 244 242 239 238 238 240 242 241 241 242 243 244 245 248 248 248 249 249 249 250 249 250 252 254 257 258 258 259 259 261 264 268 272 277 279 280 280 281 283 286 288 288
244 243 242 241 239 238 240 241 241 241 241 244 245 245 246 248 249 250 249 251 252 251 250 252 254 258 259 260 261 261 264 267 270 273 276 278 280 281 282 282 284 287 289
244 243 241 242 241 239 239 239 240 241 241 244 245 245 246 249 250 251 250 252 253 253 253 254 256 259 260 261 263 264 267 269 271 273 275 277 279 280 281 283 285 287 288
243 243 242 241 241 242 240 239 240 241 242 243 244 246 248 250 252 252 251 253 254 254 254 255 257 259 261 262 263 265 268 271 274 277 278 279 280 279 280 283 285 287 288
246 245 243 240 241 241 240 240 240 242 243 244 246 247 248 250 251 253 253 252 252 252 251 254 256 258 260 261 262 265 269 272 277 279 281 281 280 280 282 284 285 287 288
248 245 246 243 241 240 240 241 242 243 244 245 247 249 251 251 251 253 254 253 253 252 252 255 256 258 261 263 265 267 271 274 277 280 281 281 281 283 285 286 287 288 289
249 246 246 246 243 243 242 243 244 245 244 245 247 250 251 251 251 253 254 253 253 252 252 255 258 261 263 265 268 270 272 275 277 280 281 281 281 283 286 288 289 290 290
251 249 247 246 245 245 246 246 246 246 245 246 247 249 250 249 250 251 252 252 253 253 254 256 259 261 264 265 268 270 273 275 278 281 282 281 281 283 285 287 288 288 289
251 251 250 248 248 248 247 247 247 246 246 247 248 248 248 248 250 252 252 252 252 254 256 258 260 263 265 267 268 270 273 275 277 280 281 281 282 283 283 283 284 285 287
251 252 251 250 250 249 249 248 246 245 244 245 246 247 247 248 250 251 251 251 253 254 256 259 262 264 266 268 269 271 273 274 276 278 280 280 282 282 281 281 283 285 287
251 252 251 250 250 250 250 249 247 246 245 245 246 247 247 248 249 251 252 252 255 257 258 260 263 265 266 268 271 272 273 275 276 278 279 280 281 281 281 281 282 284 285
252 252 252 251 250 250 250 250 249 248 246 246 247 248 247 248 250 252 253 254 257 259 259 262 264 267 268 270 273 274 274 274 275 277 279 279 280 281 282 282 283 284 285
252 252 253 252 251 252 252 251 250 249 247 246 247 247 248 249 250 252 253 255 258 258 259 260 262 265 267 268 271 273 275 274 275 277 278 279 281 283 283 283 284 285 287
253 252 253 253 253 252 253 252 250 250 248 246 246 247 248 250 251 251 253 255 257 259 259 260 262 263 264 267 269 271 274 276 276 276 278 279 280 282 282 283 284 284 286
254 253 254 254 254 254 253 252 250 248 248 248 246 246 248 250 251 252 253 254 256 259 260 262 263 264 265 267 269 271 274 275 275 276 277 278 279 281 282 283 284 284 285
Height
5828 5828 5828 5828 5828 5828 5828 5828 5828 5829 5829 5829 5830 5830 5830 5831 5831 5832 5832 5833 5833 5833 5834 5834 5834 5835 5835 5835 5835 5835 5835 5835 5835 5834 5834 5834 5833 5832 5831 5830 5829 5828 5827
5824 5824 5825 5825 5825 5825 5825 5825 5826 5826 5826 5827 5827 5827 5828 5828 5829 5830 5830 5830 5831 5831 5832 5832 5832 5833 5833 5833 5833 5833 5833 5833 5833 5833 5832 5832 5831 5830 5829 5828 5827 5826 5825
5819 5820 5820 5821 5821 5821 5822 5822 5823 5823 5823 5824 5824 5825 5825 5826 5827 5827 5828 5828 5828 5829 5829 5830 5830 5830 5831 5831 5831 5831 5831 5831 5831 5831 5830 5830 5829 5828 5827 5826 5825 5824 5823
5814 5815 5816 5817 5817 5818 5818 5819 5819 5820 5820 5821 5821 5822 5822 5823 5824 5824 5825 5825 5826 5826 5826 5827 5827 5828 5828 5829 5829 5829 5829 5829 5829 5828 5828 5827 5827 5826 5825 5824 5823 5822 5820
5809 5810 5811 5812 5813 5813 5814 5815 5815 5816 5817 5817 5818 5818 5819 5820 5821 5821 5822 5822 5823 5823 5824 5824 5825 5825 5826 5826 5826 5826 5826 5826 5826 5826 5825 5825 5824 5823 5823 5822 5821 5819 5818
5803 5804 5805 5806 5807 5809 5809 5810 5811 5812 5813 5814 5815 5815 5816 5817 5817 5818 5819 5819 5820 5820 5821 5822 5822 5823 5823 5823 5824 5824 5824 5824 5824 5823 5822 5822 5821 5820 5819 5819 5818 5816 5815
5796 5798 5799 5800 5802 5803 5805 5806 5807 5808 5809 5810 5811 5812 5812 5813 5814 5815 5815 5816 5816 5817 5818 5819 5819 5820 5820 5820 5820 5820 5820 5820 5820 5820 5819 5819 5818 5817 5816 5815 5814 5813 5812
5789 5791 5792 5794 5796 5798 5799 5801 5802 5804 5805 5806 5807 5808 5808 5809 5810 5811 5811 5812 5813 5814 5814 5815 5816 5816 5816 5817 5817 5817 5817 5817 5816 5816 5816 5815 5814 5813 5813 5812 5810 5809 5808
5783 5784 5786 5788 5789 5791 5794 5795 5797 5799 5800 5801 5802 5803 5804 5805 5806 5807 5808 5808 5809 5810 5811 5811 5812 5812 5813 5813 5813 5813 5813 5813 5812 5812 5811 5811 5810 5809 5808 5807 5806 5805 5803
5776 5778 5779 5781 5783 5785 5788 5790 5792 5793 5795 5796 5798 5799 5800 5800 5801 5802 5803 5804 5805 5806 5806 5807 5807 5808 5808 5809 5809 5809 5809 5809 5808 5808 5807 5806 5805 5804 5803 5802 5801 5800 5798
5768 5770 5772 5774 5777 5779 5781 5784 5786 5788 5789 5791 5792 5794 5795 5796 5797 5798 5799 5799 5800 5801 5802 5802 5803 5803 5804 5804 5804 5804 5804 5804 5803 5803 5802 5801 5800 5799 5798 5797 5795 5794 5793
5761 5763 5765 5767 5769 5772 5775 5777 5779 5781 5783 5785 5786 5788 5790 5791 5792 5793 5793 5794 5795 5796 5797 5797 5798 5798 5799 5799 5799 5799 5799 5798 5798 5797 5797 5796 5795 5794 5792 5791 5790 5788 5786
5754 5756 5758 5760 5762 5765 5768 5770 5772 5775 5777 5779 5781 5782 5784 5785 5786 5787 5788 5789 5789 5790 5791 5792 5792 5793 5793 5793 5793 5793 5793 5793 5792 5791 5791 5790 5789 5787 5786 5785 5783 5782 5780
5747 5748 5751 5753 5755 5757 5760 5763 5765 5768 5770 5772 5774 5776 5777 5779 5780 5781 5782 5782 5783 5784 5785 5786 5786 5787 5787 5787 5787 5787 5787 5786 5786 5785 5784 5783 5782 5781 5780 5778 5777 5775 5774
5739 5741 5743 5745 5748 5750 5752 5756 5758 5761 5763 5765 5767 5769 5771 5772 5774 5775 5775 5776 5777 5778 5778 5779 5780 5780 5781 5781 5781 5781 5780 5780 5779 5778 5777 5776 5775 5774 5773 5771 5770 5768 5766
5731 5733 5735 5738 5740 5742 5745 5748 5750 5753 5755 5758 5760 5762 5763 5765 5766 5768 5769 5770 5770 5771 5772 5773 5773 5774 5774 5774 5774 5774 5774 5773 5772 5772 5770 5769 5768 5767 5765 5764 5762 5760 5758
5723 5725 5728 5730 5732 5735 5737 5740 5742 5745 5747 5750 5752 5754 5756 5758 5759 5761 5762 5763 5763 5764 5765 5766 5766 5767 5767 5768 5768 5767 5767 5766 5766 5764 5763 5762 5761 5759 5758 5756 5754 5752 5750
5715 5717 5720 5722 5724 5726 5729 5731 5734 5736 5739 5741 5744 5746 5748 5750 5751 5753 5754 5755 5756 5757 5758 5759 5759 5760 5760 5760 5760 5760 5760 5759 5758 5757 5755 5754 5753 5751 5750 5748 5745 5743 5741
5707 5709 5711 5713 5715 5718 5720 5723 5725 5728 5730 5732 5735 5737 5739 5741 5743 5744 5746 5747 5749 5750 5751 5751 5752 5753 5753 5753 5752 5752 5752 5751 5750 5749 5747 5746 5744 5743 5741 5739 5737 5735 5732
5698 5701 5703 5705 5707 5709 5711 5713 5716 5718 5721 5723 5726 5728 5730 5732 5734 5736 5738 5739 5741 5742 5742 5743 5744 5744 5744 5744 5744 5744 5743 5742 5741 5740 5739 5737 5736 5734 5732 5730 5728 5726 5724
5690 5692 5693 5695 5697 5699 5702 5704 5707 5709 5711 5714 5717 5719 5721 5724 5725 5727 5728 5730 5732 5733 5734 5734 5735 5735 5735 5735 5735 5735 5734 5733 5732 5731 5730 5728 5727 5725 5723 5721 5719 5718 5715
5680 5682 5684 5686 5688 5690 5692 5694 5697 5699 5701 5704 5707 5709 5712 5714 5716 5718 5719 5721 5722 5723 5724 5725 5725 5726 5726 5726 5726 5725 5725 5724 5723 5722 5720 5719 5717 5716 5714 5712 5710 5708 5706
5670 5673 5675 5677 5679 5680 5682 5685 5687 5689 5691 5694 5697 5699 5702 5704 5706 5708 5710 5711 5712 5713 5714 5715 5716 5716 5717 5716 5716 5716 5715 5715 5714 5712 5711 5709 5708 5706 5704 5703 5701 5699 5697
5661 5663 5665 5667 5669 5671 5673 5675 5677 5678 5681 5683 5686 5689 5691 5693 5695 5697 5699 5701 5702 5703 5704 5705 5706 5706 5706 5706 5706 5706 5705 5704 5703 5702 5701 5700 5698 5697 5695 5693 5691 5689 5687
5651 5653 5655 5656 5659 5661 5662 5664 5666 5668 5670 5672 5675 5678 5680 5683 5685 5687 5688 5690 5691 5692 5693 5694 5695 5695 5696 5696 5696 5695 5695 5694 5693 5692 5691 5689 5688 5686 5685 5683 5681 5679 5677
5641 5643 5645 5646 5648 5650 5652 5653 5655 5657 5659 5661 5664 5666 5669 5671 5673 5675 5677 5679 5680 5681 5682 5683 5684 5684 5685 5685 5685 5685 5684 5683 5682 5681 5680 5679 5678 5676 5674 5673 5671 5669 5667